Tulsa, OK

8:32 AM CDT on September 28, 2016 (GMT -0500)
Tulsa International

Weather History for KTUL - December, 2011

Change the Weather History Date:

Monday, December 19, 2011

  Actual Average Record
Temperature  
Mean Temperature 52 °F 38 °F  
Max Temperature 56 °F 48 °F 70 °F (1967)
Min Temperature 47 °F 29 °F -1 °F (1924)
Degree Days  
Heating Degree Days 13 27  
Month to date heating degree days 443 466  
Since 1 July heating degree days 1020 1102  
Moisture  
Dew Point 42 °F    
Average Humidity 71    
Maximum Humidity 100    
Minimum Humidity 41    
Precipitation  
Precipitation 0.53 in 0.08 in 2.66 in (1898)
Month to date precipitation 1.42 1.61  
Year to date precipitation 31.96 40.09  
Sea Level Pressure  
Sea Level Pressure 29.91 in    
Wind  
Wind Speed 10 mph (East)    
Max Wind Speed 21 mph    
Max Gust Speed 24 mph    
Visibility 7 miles    
Events Rain , Thunderstorm    
T = Trace of Precipitation, MM = Missing Value Source: NWS Daily Summary

Daily Weather History Graph

Daily Weather History Graph

Search for Another Location

Airport or City:

Trip Planner

Search our weather history database for the weather conditions in past years. The results will help you decide how hot, cold, wet, or windy it might be!

Date:

Astronomy

Dec. 19, 2011 Rise Set
Actual Time 7:29 AM CST 5:11 PM CST
Civil Twilight 7:00 AM CST 5:40 PM CST
Nautical Twilight 6:28 AM CST 6:12 PM CST
Astronomical Twilight 5:57 AM CST 6:43 PM CST
Moon 1:47 AM CST (12/19) 1:05 PM CST (12/19)
Length of Visible Light 10h 39m
Length of Day
9h 41m
Waning Crescent, 31% of the Moon is Illuminated
Dec 19
Waning Crescent
Dec 24
New
Jan 1
First Quarter
Jan 9
Full
Jan 16
Last Quarter

Hourly Weather History & Observations

Time (CST) Temp. Windchill Dew Point Humidity Pressure Visibility Wind Dir Wind Speed Gust Speed Precip Events Conditions
12:53 AM 52.0 °F - 34.0 °F 50% 30.00 in 10.0 mi SSE 12.7 mph - N/A   Mostly Cloudy
1:53 AM 52.0 °F - 34.0 °F 50% 29.99 in 10.0 mi SSE 8.1 mph - 0.00 in   Overcast
2:53 AM 53.1 °F - 33.1 °F 47% 29.99 in 10.0 mi SSE 11.5 mph - N/A   Overcast
3:53 AM 53.1 °F - 34.0 °F 48% 29.98 in 10.0 mi South 9.2 mph - N/A   Overcast
4:53 AM 54.0 °F - 34.0 °F 47% 29.97 in 10.0 mi SSE 9.2 mph - N/A   Overcast
5:48 AM 53.6 °F - 33.8 °F 47% 29.98 in 10.0 mi South 9.2 mph - N/A   Overcast
5:53 AM 53.1 °F - 34.0 °F 48% 29.97 in 10.0 mi South 9.2 mph - N/A   Overcast
6:53 AM 53.1 °F - 35.1 °F 50% 29.98 in 10.0 mi SSE 6.9 mph - N/A   Overcast
7:53 AM 53.1 °F - 35.1 °F 50% 29.99 in 10.0 mi SE 8.1 mph - N/A   Overcast
8:53 AM 54.0 °F - 36.0 °F 51% 29.99 in 10.0 mi SSE 10.4 mph - N/A   Overcast
9:43 AM 50.0 °F - 41.0 °F 71% 30.01 in 2.0 mi SE 9.2 mph - N/A Rain Heavy Rain
9:53 AM 50.0 °F - 41.0 °F 71% 30.01 in 5.0 mi SSE 9.2 mph - 0.05 in Rain Light Rain
10:53 AM 50.0 °F - 43.0 °F 77% 29.99 in 10.0 mi ESE 9.2 mph - 0.00 in Rain Light Rain
11:53 AM 50.0 °F - 43.0 °F 77% 29.95 in 10.0 mi SE 12.7 mph - 0.01 in   Overcast
12:53 PM 52.0 °F - 44.1 °F 74% 29.90 in 10.0 mi ESE 11.5 mph - N/A   Mostly Cloudy
1:53 PM 54.0 °F - 43.0 °F 66% 29.86 in 10.0 mi ESE 9.2 mph - N/A   Overcast
2:53 PM 55.9 °F - 42.1 °F 60% 29.82 in 10.0 mi East 11.5 mph - N/A   Overcast
3:53 PM 55.0 °F - 39.9 °F 57% 29.78 in 10.0 mi ENE 9.2 mph - 0.00 in Rain , Thunderstorm Light Thunderstorms and Rain
4:08 PM 53.6 °F - 44.6 °F 72% 29.78 in 3.0 mi East 12.7 mph - 0.01 in Rain , Thunderstorm Thunderstorms and Rain
4:35 PM 51.8 °F - 46.4 °F 82% 29.84 in 6.0 mi North 3.5 mph - 0.05 in Rain Light Rain
4:45 PM 51.8 °F - 46.4 °F 82% 29.83 in 2.5 mi NE 5.8 mph - 0.05 in Rain Light Rain
4:53 PM 51.1 °F - 46.9 °F 86% 29.83 in 2.5 mi ENE 8.1 mph - 0.07 in Rain Light Rain
5:48 PM 48.2 °F - 46.4 °F 93% 29.84 in 5.0 mi ENE 8.1 mph - 0.12 in Rain Light Rain
5:53 PM 48.9 °F - 46.9 °F 93% 29.84 in 5.0 mi NE 8.1 mph - 0.12 in Rain Light Rain
6:53 PM 48.2 °F - 46.4 °F 93% 29.86 in 5.0 mi North 12.7 mph - N/A Rain Light Rain
7:02 PM 48.2 °F - 46.4 °F 93% 29.89 in 2.0 mi NNE 9.2 mph - 0.03 in Rain Rain
7:24 PM 48.2 °F - 46.4 °F 93% 29.89 in 3.0 mi NE 9.2 mph - 0.13 in Rain Light Rain
7:40 PM 46.4 °F 41.5 °F 46.4 °F 100% 29.89 in 2.0 mi NE 10.4 mph - 0.15 in Rain Rain
7:53 PM 46.9 °F - 46.0 °F 97% 29.90 in 2.5 mi NNE 11.5 mph - 0.17 in Rain Light Rain
8:53 PM 46.9 °F - 46.0 °F 97% 29.90 in 2.0 mi ENE 10.4 mph - 0.05 in Rain Light Rain
9:53 PM 46.9 °F - 46.0 °F 97% 29.88 in 2.5 mi ENE 13.8 mph - 0.03 in Rain Light Rain
10:03 PM 46.4 °F 40.7 °F 44.6 °F 93% 29.86 in 4.0 mi ENE 12.7 mph - 0.01 in Rain Rain
10:53 PM 46.9 °F - 45.0 °F 93% 29.88 in 8.0 mi ENE 9.2 mph - 0.03 in   Overcast
11:53 PM 46.9 °F - 45.0 °F 93% 29.87 in 9.0 mi NE 6.9 mph - N/A   Overcast